Precipitable_Water
0.57 0.55 0.55 0.56 0.56 0.58 0.62 0.66 0.71 0.79 0.82 0.83 0.80 0.92 0.98 0.95 0.97 1.02 0.88 1.05 0.89 0.67 0.62 0.84 0.88 0.74 0.73 0.67 0.58 0.66 0.61 0.56 0.49 0.42 0.39 0.44 0.44 0.47 0.50 0.52 0.50 0.49 0.48 0.45 0.44 0.38 0.40 0.68 0.62 0.53 0.64 0.69 0.70 0.68
0.56 0.55 0.55 0.55 0.56 0.56 0.57 0.63 0.72 0.79 0.85 0.85 0.81 0.89 0.97 0.94 0.95 1.07 0.85 1.05 1.02 0.76 0.61 0.81 0.88 0.95 0.90 0.81 0.68 0.69 0.66 0.67 0.66 0.47 0.42 0.48 0.46 0.46 0.52 0.45 0.65 0.49 0.60 0.55 0.55 0.54 0.73 0.73 0.74 0.77 0.73 0.65 0.62 0.63
0.56 0.55 0.55 0.56 0.56 0.57 0.59 0.63 0.72 0.85 0.87 0.80 0.83 0.89 0.97 0.96 0.94 1.04 0.91 0.94 0.91 0.71 0.55 0.59 0.62 0.81 0.91 0.84 0.83 0.64 0.75 0.75 0.69 0.71 0.58 0.50 0.46 0.50 0.46 0.53 0.53 0.64 0.72 0.66 0.64 0.73 0.72 0.76 0.79 0.78 0.74 0.68 0.66 0.69
0.57 0.56 0.56 0.56 0.57 0.57 0.59 0.64 0.75 0.86 0.86 0.85 0.88 0.90 0.89 0.94 0.93 1.02 0.91 0.93 0.88 0.78 0.52 0.44 0.74 0.70 0.64 0.69 0.71 0.70 0.77 0.82 0.77 0.74 0.61 0.53 0.46 0.63 0.56 0.56 0.55 0.72 0.72 0.76 0.79 0.83 0.83 0.84 0.81 0.81 0.75 0.74 0.73 0.77
0.56 0.56 0.55 0.56 0.58 0.57 0.60 0.64 0.77 0.87 0.89 0.82 0.84 0.84 0.87 0.92 0.94 1.00 0.97 0.94 0.94 0.79 0.58 0.52 0.70 0.64 0.62 0.60 0.55 0.63 0.70 0.71 0.78 0.73 0.60 0.53 0.66 0.63 0.67 0.68 0.69 0.70 0.72 0.69 0.67 0.83 0.87 0.88 0.92 0.84 0.79 0.75 0.72 0.66
0.55 0.55 0.55 0.56 0.57 0.60 0.64 0.68 0.74 0.84 0.87 0.83 0.84 0.86 0.86 0.92 0.98 0.94 0.83 1.01 1.02 1.00 0.69 0.52 0.74 0.68 0.66 0.63 0.57 0.53 0.56 0.58 0.63 0.64 0.65 0.70 0.77 0.68 0.57 0.62 0.77 0.81 0.93 0.87 0.76 0.89 0.89 0.87 0.85 0.87 0.79 0.74 0.72 0.70
0.56 0.55 0.55 0.55 0.56 0.60 0.63 0.67 0.73 0.83 0.87 0.84 0.87 0.91 0.91 0.95 0.96 0.80 0.81 1.05 1.06 1.00 0.70 0.57 0.54 0.64 0.67 0.61 0.60 0.55 0.54 0.59 0.57 0.57 0.55 0.61 0.71 0.69 0.63 0.58 0.76 0.84 0.84 0.83 0.83 0.87 0.82 0.85 0.85 0.84 0.72 0.68 0.71 0.73
0.58 0.55 0.54 0.54 0.55 0.58 0.62 0.66 0.70 0.79 0.85 0.84 0.83 0.92 0.93 0.94 0.92 0.81 0.91 1.02 1.07 0.85 0.82 0.56 0.51 0.62 0.76 0.58 0.43 0.52 0.45 0.48 0.52 0.53 0.55 0.53 0.62 0.64 0.53 0.59 0.73 0.82 0.84 0.84 0.83 0.91 0.86 0.88 0.86 0.80 0.77 0.75 0.72 0.72
0.59 0.54 0.52 0.53 0.54 0.58 0.63 0.66 0.71 0.77 0.81 0.78 0.86 1.02 0.93 0.84 0.80 0.92 1.05 1.03 1.01 0.86 0.67 0.60 0.46 0.53 0.78 0.59 0.54 0.54 0.54 0.44 0.52 0.46 0.50 0.55 0.49 0.46 0.52 0.56 0.62 0.66 0.66 0.69 0.76 0.78 0.77 0.76 0.75 0.73 0.72 0.70 0.68 0.73
0.60 0.55 0.52 0.51 0.51 0.55 0.63 0.67 0.72 0.74 0.77 0.89 0.97 0.92 0.81 0.95 1.12 1.08 0.92 0.75 0.72 0.72 0.69 0.52 0.69 0.59 0.76 0.73 0.54 0.54 0.56 0.47 0.41 0.48 0.52 0.44 0.41 0.52 0.55 0.61 0.63 0.65 0.67 0.67 0.63 0.64 0.67 0.66 0.67 0.74 0.79 0.84 0.82 0.79
0.61 0.57 0.53 0.51 0.51 0.53 0.62 0.67 0.73 0.82 0.99 0.96 0.89 0.89 1.11 1.25 0.96 0.80 0.68 0.60 0.63 0.54 0.55 0.47 0.51 0.57 0.78 0.70 0.63 0.65 0.58 0.64 0.45 0.45 0.49 0.48 0.45 0.57 0.62 0.57 0.65 0.66 0.68 0.70 0.77 0.80 0.81 0.78 0.75 0.76 0.78 0.82 0.84 0.84
0.62 0.58 0.55 0.52 0.51 0.53 0.59 0.66 0.73 0.73 0.83 0.91 0.99 1.08 1.07 0.95 0.77 0.67 0.58 0.61 0.56 0.51 0.53 0.52 0.47 0.56 0.66 0.80 0.63 0.71 0.60 0.65 0.50 0.66 0.57 0.48 0.72 0.83 0.82 0.90 0.76 0.74 0.73 0.74 0.83 0.88 0.89 0.87 0.86 0.83 0.82 0.83 0.84 0.81
0.62 0.60 0.56 0.53 0.54 0.55 0.57 0.64 0.72 0.82 0.83 0.91 0.91 0.84 0.79 0.77 0.63 0.54 0.48 0.46 0.45 0.55 0.61 0.59 0.51 0.54 0.59 0.67 0.63 0.61 0.55 0.56 0.69 0.54 0.47 0.64 0.84 0.85 0.82 0.96 1.15 1.03 0.92 0.88 0.95 0.99 0.94 0.87 0.84 0.76 0.74 0.75 0.74 0.75
0.62 0.60 0.57 0.55 0.56 0.55 0.54 0.60 0.68 0.83 0.84 0.76 0.69 0.59 0.63 0.63 0.65 0.65 0.65 0.67 0.78 0.74 0.62 0.66 0.57 0.61 0.60 0.57 0.54 0.47 0.65 0.64 0.52 0.48 0.60 0.77 0.81 0.84 0.93 1.05 1.14 1.17 0.99 0.97 0.98 0.97 0.92 0.85 0.77 0.78 0.78 0.81 0.82 0.81
0.63 0.61 0.61 0.61 0.58 0.55 0.55 0.57 0.66 0.84 0.79 0.72 0.73 0.58 0.62 0.73 0.80 0.83 0.86 0.85 0.91 0.91 0.79 0.73 0.70 0.69 0.60 0.55 0.58 0.58 0.54 0.45 0.56 0.55 0.74 0.86 0.89 0.87 0.87 0.95 1.12 1.20 1.06 1.05 1.00 1.06 0.96 0.90 0.87 0.86 0.92 0.92 0.92 0.90
0.63 0.63 0.66 0.61 0.58 0.55 0.53 0.61 0.69 0.86 0.79 0.73 0.72 0.67 0.75 0.72 0.74 0.82 0.86 0.80 1.02 1.07 0.90 0.90 0.79 0.59 0.56 0.57 0.51 0.50 0.47 0.44 0.61 0.73 0.84 0.93 0.90 0.92 0.92 1.06 1.19 1.34 1.04 1.11 1.07 1.02 1.03 0.99 0.95 0.96 0.98 0.93 0.93 0.95
0.63 0.61 0.65 0.63 0.55 0.51 0.60 0.60 0.71 0.76 0.70 0.64 0.59 0.69 0.74 0.75 0.72 0.73 0.81 0.85 0.98 0.90 0.81 0.77 0.57 0.52 0.64 0.63 0.61 0.62 0.60 0.72 0.83 0.90 0.98 1.00 1.05 1.07 1.17 1.40 1.21 1.18 1.10 1.05 1.01 1.01 1.01 1.07 1.05 0.92 0.84 0.92 0.93 0.87
0.59 0.63 0.61 0.55 0.54 0.60 0.64 0.60 0.63 0.66 0.61 0.62 0.52 0.60 0.68 0.73 0.76 0.74 0.85 0.95 0.93 0.89 0.79 0.64 0.69 0.63 0.62 0.60 0.70 0.87 0.93 1.06 1.01 0.97 1.01 1.05 1.06 1.16 1.08 1.02 1.04 1.01 0.99 1.02 1.03 1.04 1.01 0.88 0.80 0.78 0.83 0.86 0.83 0.80
0.63 0.60 0.58 0.59 0.61 0.54 0.54 0.56 0.61 0.54 0.57 0.59 0.65 0.65 0.68 0.68 0.73 0.75 0.78 0.86 0.98 1.00 0.89 0.76 0.65 0.68 0.74 0.85 0.86 0.93 0.99 1.00 0.93 0.91 1.02 1.07 1.08 1.05 1.17 1.17 1.07 1.08 1.07 1.04 0.97 0.88 0.81 0.82 0.78 0.78 0.80 0.80 0.77 0.85
0.63 0.62 0.60 0.61 0.61 0.51 0.47 0.53 0.70 0.56 0.47 0.56 0.65 0.65 0.64 0.64 0.69 0.73 0.71 0.72 0.73 0.79 0.73 0.67 0.70 0.82 0.84 0.97 1.05 1.07 1.09 1.13 1.03 0.99 1.05 1.10 1.10 1.12 1.11 1.10 1.11 1.09 1.01 0.94 0.88 0.81 0.77 0.76 0.77 0.82 0.86 0.89 0.90 0.94
0.63 0.62 0.60 0.60 0.59 0.51 0.47 0.51 0.55 0.57 0.59 0.54 0.62 0.65 0.65 0.71 0.67 0.66 0.66 0.75 0.67 0.58 0.62 0.73 0.79 0.92 0.97 1.01 1.06 1.14 1.09 1.05 0.97 1.00 0.98 0.93 1.00 1.00 1.10 1.10 1.06 1.01 0.89 0.80 0.74 0.75 0.76 0.76 0.82 0.88 0.90 0.95 1.01 1.01
0.58 0.62 0.55 0.61 0.52 0.54 0.47 0.51 0.52 0.60 0.55 0.52 0.54 0.58 0.55 0.55 0.58 0.63 0.70 0.62 0.59 0.62 0.66 0.65 0.75 0.91 0.95 0.97 1.05 1.08 1.03 0.94 0.90 0.95 0.94 1.00 0.98 1.04 0.98 0.99 0.92 0.80 0.74 0.72 0.69 0.69 0.74 0.87 0.91 0.96 0.97 1.01 1.06 1.08
0.59 0.56 0.51 0.51 0.44 0.45 0.39 0.53 0.47 0.52 0.46 0.49 0.55 0.52 0.52 0.55 0.60 0.72 0.68 0.70 0.69 0.79 0.76 0.73 0.78 0.85 0.88 0.97 1.07 1.10 1.11 1.04 0.90 0.99 0.97 1.00 1.15 1.15 1.06 0.94 0.83 0.76 0.70 0.69 0.75 0.82 0.81 0.89 0.90 0.88 0.92 0.95 0.97 1.03
0.59 0.46 0.42 0.39 0.41 0.34 0.47 0.46 0.51 0.49 0.49 0.46 0.44 0.45 0.54 0.61 0.68 0.68 0.61 0.67 0.75 0.89 0.85 0.87 0.86 0.81 0.81 0.82 0.82 0.87 0.98 1.05 0.89 0.95 1.01 0.99 1.05 1.03 0.97 0.87 0.84 0.76 0.74 0.80 0.80 0.79 0.85 0.86 0.86 0.91 0.92 0.95 1.03 1.08
0.37 0.34 0.36 0.31 0.42 0.42 0.38 0.41 0.46 0.46 0.43 0.49 0.49 0.48 0.59 0.70 0.63 0.64 0.64 0.70 0.81 0.86 0.93 0.91 0.85 0.78 0.70 0.72 0.75 0.74 0.87 0.94 0.90 0.80 0.93 1.02 1.01 0.96 0.88 0.88 0.77 0.75 0.80 0.75 0.65 0.72 0.81 0.88 0.92 0.95 0.94 1.04 1.10 1.11
0.28 0.33 0.32 0.35 0.41 0.41 0.41 0.43 0.50 0.52 0.49 0.48 0.51 0.60 0.65 0.66 0.64 0.65 0.77 0.88 0.99 1.03 1.01 0.98 0.92 0.90 0.94 0.97 0.91 0.90 0.94 0.94 0.88 0.79 0.92 1.07 0.91 0.84 0.76 0.67 0.66 0.74 0.83 0.76 0.64 0.76 0.85 0.93 0.94 0.95 1.00 1.12 1.12 1.12
0.30 0.34 0.43 0.51 0.48 0.48 0.46 0.51 0.57 0.56 0.52 0.50 0.53 0.57 0.62 0.60 0.63 0.81 0.95 1.03 1.00 1.06 1.07 1.05 1.02 0.96 1.01 1.05 1.12 1.14 1.06 0.93 0.86 0.87 1.01 0.88 0.88 0.80 0.73 0.65 0.59 0.67 0.77 0.76 0.80 0.89 0.92 0.94 0.92 0.93 0.98 1.09 1.11 1.11
0.35 0.42 0.39 0.49 0.49 0.49 0.45 0.49 0.52 0.53 0.57 0.63 0.60 0.57 0.64 0.69 0.74 0.91 0.95 0.97 0.96 0.99 0.97 1.03 1.10 1.07 1.07 1.13 1.15 1.10 1.02 0.93 0.95 0.99 0.86 0.74 0.80 0.79 0.78 0.77 0.74 0.72 0.82 0.86 0.90 0.99 0.98 0.97 0.95 0.94 0.94 0.97 1.03 1.08
0.39 0.48 0.49 0.46 0.51 0.51 0.47 0.45 0.50 0.61 0.69 0.67 0.64 0.66 0.73 0.88 0.98 0.96 0.98 0.95 0.93 0.94 0.97 1.03 1.07 1.08 1.09 1.16 1.16 1.12 1.06 0.92 0.72 0.60 0.59 0.64 0.73 0.78 0.85 0.79 0.76 0.83 0.91 0.94 1.03 1.06 1.03 1.02 1.01 0.96 0.92 0.94 0.99 1.01
0.45 0.55 0.50 0.49 0.47 0.45 0.51 0.58 0.59 0.68 0.70 0.71 0.76 0.77 0.82 0.90 0.92 1.00 0.99 0.94 0.89 0.94 1.07 1.21 1.15 1.08 1.04 1.04 1.05 1.02 0.95 0.85 0.80 0.72 0.72 0.79 0.81 0.88 0.81 0.80 0.73 0.75 0.84 0.89 0.92 0.96 0.97 0.94 0.94 0.89 0.82 0.86 0.86 0.84
0.67 0.62 0.56 0.55 0.51 0.55 0.59 0.65 0.68 0.69 0.69 0.67 0.72 0.70 0.69 0.75 0.87 0.96 0.96 0.95 0.99 1.06 1.05 1.09 1.17 1.10 1.03 1.00 0.95 0.81 0.77 0.78 0.86 0.88 0.91 0.85 0.82 0.73 0.78 0.76 0.76 0.76 0.77 0.81 0.82 0.82 0.82 0.79 0.80 0.82 0.77 0.79 0.76 0.76
0.72 0.64 0.58 0.53 0.54 0.62 0.64 0.62 0.65 0.64 0.65 0.66 0.67 0.73 0.75 0.74 0.72 0.86 0.98 1.01 1.05 1.02 1.08 1.16 1.21 1.27 1.27 1.12 1.08 0.87 0.82 0.80 0.85 0.82 0.81 0.77 0.75 0.72 0.65 0.77 0.83 0.84 0.80 0.74 0.75 0.78 0.80 0.78 0.72 0.69 0.70 0.70 0.69 0.70
0.73 0.70 0.66 0.63 0.60 0.59 0.65 0.63 0.60 0.59 0.66 0.70 0.72 0.77 0.77 0.76 0.71 0.85 1.12 1.21 1.15 1.17 1.18 1.22 1.29 1.28 1.20 1.01 0.90 0.88 0.89 0.96 0.95 0.88 0.82 0.77 0.70 0.62 0.61 0.73 0.81 0.83 0.84 0.79 0.77 0.78 0.81 0.81 0.78 0.73 0.68 0.71 0.74 0.77
Wind_Speed
28 27 26 25 24 22 20 18 17 17 17 16 14 15 16 14 17 16 20 19 19 22 25 23 19 19 18 16 16 17 15 16 23 21 20 20 19 21 19 17 24 23 18 19 17 16 17 19 18 17 19 15 14 13
28 27 27 25 24 22 21 19 18 18 17 14 13 14 16 15 17 17 19 18 18 20 23 24 24 23 21 19 18 17 16 15 15 19 21 21 22 19 17 19 14 18 19 21 18 20 18 15 16 17 18 18 17 17
28 28 27 26 24 23 21 18 17 16 14 14 14 13 16 15 17 17 18 18 17 18 21 23 23 22 22 23 22 20 18 18 18 18 20 23 25 22 18 18 21 21 20 18 18 17 15 16 19 19 18 17 18 18
28 27 27 26 24 23 21 18 16 14 14 13 11 12 15 15 16 17 18 17 16 16 17 17 18 22 25 20 22 23 23 21 20 19 20 21 21 19 20 23 21 21 25 24 23 25 23 24 24 21 21 20 19 18
28 27 27 26 24 23 20 17 15 14 14 13 12 11 14 15 15 16 18 18 17 15 13 17 18 16 19 20 21 23 23 23 21 19 19 20 18 18 19 15 15 20 21 23 21 24 28 22 19 18 18 20 20 21
28 27 27 25 24 22 19 16 15 14 14 11 11 11 12 14 14 15 15 14 15 14 14 14 14 15 14 13 14 17 20 23 23 23 22 18 19 18 19 20 16 11 13 18 19 18 17 18 21 20 18 19 21 22
27 27 27 25 24 22 19 16 14 13 12 10 10 12 13 14 15 17 14 13 13 13 13 13 13 15 15 15 16 17 19 21 21 23 24 23 21 20 21 23 22 18 21 19 20 26 24 20 18 20 23 24 24 24
27 27 27 25 23 21 18 16 15 13 12 10 10 11 13 15 17 16 16 16 14 14 13 12 12 10 13 12 13 15 15 17 20 20 20 21 23 24 25 27 25 23 23 23 21 22 23 25 27 28 27 25 25 25
27 27 26 24 23 20 18 16 14 13 11 10 9 10 11 14 14 14 15 14 15 13 12 12 13 10 8 10 11 12 12 13 16 19 21 20 22 24 25 27 29 29 28 27 27 25 26 27 28 29 27 27 26 25
28 27 26 24 22 19 17 15 14 12 10 7 6 9 12 13 13 14 14 14 14 14 14 13 12 9 8 8 10 10 11 12 14 16 16 22 24 25 26 27 26 26 26 27 28 28 29 31 28 26 24 23 22 23
28 27 26 24 22 18 16 14 12 9 5 5 6 8 10 12 14 15 14 14 13 12 13 14 16 14 9 7 8 9 9 9 10 12 15 15 17 18 22 25 24 23 23 23 22 23 21 21 21 21 22 22 22 22
28 27 26 23 21 17 14 12 10 7 6 8 7 9 12 11 13 13 14 13 13 12 11 13 14 15 12 8 8 8 9 9 9 12 11 12 12 14 12 14 19 19 20 19 19 19 18 18 18 19 20 21 22 23
29 28 25 22 18 14 13 12 10 8 8 9 8 8 11 13 13 14 14 14 12 10 10 12 11 13 13 10 9 9 9 9 10 11 13 13 15 15 17 19 15 15 16 16 15 16 16 17 18 19 20 20 21 22
29 27 24 20 16 14 13 12 10 9 8 10 10 8 11 12 14 14 12 12 12 9 14 13 12 11 11 10 10 10 8 9 9 10 10 12 15 13 17 14 17 16 13 12 12 13 14 15 15 15 16 18 19 20
28 26 22 17 15 14 13 12 10 9 9 10 11 9 11 10 11 13 14 13 12 13 14 11 12 11 10 10 9 8 8 9 9 8 10 13 14 14 11 14 13 12 10 10 9 9 9 10 13 15 16 17 19 19
26 23 15 14 15 14 12 9 9 9 9 12 13 9 7 9 11 12 11 13 13 4 11 13 10 9 11 10 10 10 9 10 9 11 11 11 12 14 15 13 15 12 6 9 7 9 11 13 14 16 17 18 18 20
23 15 16 14 14 11 8 8 9 9 9 11 13 13 12 11 9 10 12 13 11 11 11 11 11 11 9 9 10 8 8 8 7 9 11 11 12 9 8 3 6 7 6 8 10 12 13 14 16 16 17 16 17 18
16 16 13 11 9 6 6 8 8 8 10 13 13 14 11 9 10 9 11 13 12 11 12 11 10 10 9 7 5 5 5 6 6 9 14 11 5 3 1 3 3 3 5 6 9 10 12 13 13 14 13 15 17 19
15 14 10 7 5 5 5 7 8 7 9 10 12 14 12 12 11 11 12 11 11 11 10 11 11 10 9 8 7 6 6 7 6 4 2 2 2 2 4 4 5 6 7 9 10 12 12 11 12 14 16 17 18 19
13 10 7 6 4 4 5 6 7 7 7 7 8 10 12 13 13 12 12 14 13 11 10 11 10 9 9 7 7 7 5 2 1 3 4 4 4 5 6 6 6 8 9 11 10 10 11 12 14 16 17 17 17 16
8 5 4 3 4 6 5 5 6 7 7 8 8 6 7 10 13 14 13 14 14 13 13 12 11 10 10 8 5 5 4 3 4 5 7 7 7 7 5 7 7 9 9 10 10 11 12 14 15 16 17 16 16 18
6 7 5 4 4 5 6 7 7 6 6 8 8 8 9 9 10 11 12 14 15 14 14 14 13 12 10 10 10 9 7 5 5 5 7 7 7 6 5 8 8 8 9 9 11 13 13 13 16 17 16 18 18 20
6 4 4 4 4 5 5 6 6 7 7 6 7 8 9 10 10 10 9 11 11 11 13 13 13 14 12 11 12 11 10 9 7 7 5 5 3 6 8 7 7 6 8 11 11 11 12 14 15 17 17 18 19 19
5 4 4 4 5 4 4 6 6 7 7 9 8 8 7 7 7 7 9 10 9 8 8 8 10 12 13 13 14 14 12 11 9 8 7 5 6 7 6 5 5 7 9 10 11 12 12 13 14 14 17 17 15 7
5 5 3 5 5 4 4 5 7 7 7 7 7 7 6 6 6 7 7 7 9 8 8 8 9 10 11 11 12 12 13 13 12 8 8 6 5 5 5 5 5 8 10 12 13 11 10 10 10 14 16 13 8 6
5 5 5 5 5 5 6 5 5 5 6 6 7 7 7 6 6 6 5 6 6 6 6 6 7 7 8 10 10 9 9 12 11 10 7 6 4 6 2 3 8 11 11 9 8 6 7 7 10 13 15 13 11 11
5 5 6 8 5 4 4 6 6 6 5 6 6 6 6 7 6 5 6 5 5 5 5 6 6 7 6 6 7 8 6 8 9 9 7 6 3 2 3 5 8 8 7 7 5 4 5 8 10 13 15 15 16 14
6 6 8 7 8 7 7 6 6 6 6 5 6 8 5 3 4 5 5 4 5 6 6 7 6 7 7 7 7 5 6 9 10 8 8 5 4 2 3 6 9 8 6 5 5 6 7 8 10 12 14 14 13 14
7 5 7 8 7 8 8 9 10 8 6 6 6 7 6 5 5 5 5 5 6 6 6 5 6 9 9 11 10 9 10 10 10 9 7 5 6 4 3 5 8 9 8 8 8 8 8 9 10 11 12 12 12 12
9 8 9 9 8 8 9 9 8 9 8 8 9 8 7 8 7 7 7 7 6 6 6 4 2 5 13 15 11 11 12 11 10 7 6 5 7 5 3 3 5 7 7 8 8 8 9 9 9 10 10 10 11 11
4 5 7 8 9 11 10 10 10 10 9 9 10 10 9 8 8 8 8 7 7 9 8 9 9 10 13 14 13 12 11 13 7 6 6 7 9 6 5 4 4 5 6 7 7 7 7 6 7 7 7 7 7 7
4 6 7 8 8 9 9 10 10 10 10 10 10 9 9 9 8 8 7 6 8 9 9 9 7 4 12 12 13 10 13 11 8 7 9 9 6 2 4 5 5 5 5 5 5 5 5 6 6 6 5 6 5 5
2 4 5 5 5 6 7 9 8 7 8 7 7 7 8 8 8 7 7 10 11 11 10 10 9 10 11 12 13 12 11 11 10 11 8 5 4 3 5 6 5 4 4 4 3 2 3 3 3 4 4 3 3 4
Wind_Direction
337 336 335 333 329 324 317 309 304 300 296 291 276 254 242 237 231 229 223 222 225 229 228 228 234 235 235 231 225 239 238 225 226 229 230 226 230 228 228 231 221 227 225 229 236 236 239 240 240 236 235 238 244 256
337 336 335 333 330 326 319 310 305 302 296 287 271 259 236 240 230 226 218 225 233 225 224 235 237 235 232 236 238 236 234 235 228 228 231 227 228 232 232 230 234 225 230 240 238 233 234 239 230 232 236 244 257 259
336 335 334 333 330 327 321 314 308 304 298 290 268 260 235 234 226 223 222 228 233 231 235 227 227 230 233 235 231 232 230 231 235 240 236 229 227 228 235 237 235 233 234 236 233 232 236 232 238 240 244 253 262 265
337 336 334 333 330 328 322 315 308 303 300 294 268 256 234 231 224 223 221 224 228 229 227 220 227 238 231 235 230 235 234 236 238 239 238 231 233 235 233 236 238 237 237 234 234 237 245 257 246 243 250 257 262 269
336 336 335 333 331 329 324 316 309 303 302 289 267 253 228 226 225 225 224 222 218 219 225 230 245 229 228 230 237 235 234 234 234 238 239 235 236 236 231 232 228 235 233 231 244 244 239 242 239 240 249 259 267 267
334 334 334 333 330 330 326 318 312 305 304 287 260 240 227 221 221 213 207 207 212 221 221 221 225 229 216 223 230 232 234 235 235 235 239 235 238 238 230 225 224 230 233 211 229 244 248 246 251 252 264 269 272 275
332 333 333 332 329 328 324 317 311 305 302 289 263 240 229 221 215 208 208 209 215 219 220 226 225 226 226 239 240 237 235 233 234 237 238 239 241 238 235 231 232 233 235 258 251 243 245 251 251 268 274 277 273 275
329 330 330 329 327 326 321 315 310 304 296 285 264 240 226 222 216 212 211 215 215 215 217 221 220 224 226 241 232 228 232 232 237 238 240 240 241 242 240 238 239 239 242 248 250 252 256 255 261 267 274 276 275 274
327 328 328 327 325 323 319 314 311 305 292 279 258 230 212 202 199 201 206 206 210 213 216 217 219 230 230 233 231 226 231 240 242 240 241 241 240 242 245 245 248 249 247 249 255 258 264 263 264 266 268 270 272 271
325 325 324 324 322 320 316 313 311 305 289 264 227 209 206 198 202 206 205 207 210 211 215 217 215 225 228 237 235 231 236 247 245 245 247 242 246 250 251 251 250 249 252 257 259 262 264 261 261 265 269 269 268 270
322 322 321 320 318 315 311 309 309 301 262 230 223 211 208 216 208 204 204 204 203 211 215 219 220 222 230 225 244 237 241 248 248 251 250 249 251 258 261 250 246 247 250 254 257 258 259 257 259 262 266 267 269 272
320 319 318 316 314 309 303 302 300 278 250 237 241 227 211 201 200 203 205 206 209 212 217 212 217 215 223 242 245 257 241 254 261 274 263 259 251 261 279 269 245 244 246 249 254 251 252 254 259 263 265 267 270 274
318 317 314 312 309 304 298 292 282 273 259 221 218 212 203 205 207 209 203 205 212 218 223 212 218 219 225 237 250 254 255 259 262 267 271 258 265 269 268 268 258 243 247 248 246 247 252 255 261 264 266 269 273 275
316 314 310 304 300 297 295 285 271 259 233 220 214 217 205 208 210 209 214 220 224 231 224 220 221 217 229 235 246 256 256 263 267 269 264 264 274 270 272 262 234 244 245 236 240 244 251 257 260 265 271 274 276 278
315 313 306 296 293 293 290 276 257 238 225 215 208 210 210 210 220 222 223 225 227 242 222 221 216 221 231 239 243 251 258 262 271 277 281 273 273 277 260 249 247 252 228 229 238 243 252 260 269 274 276 279 282 283
315 312 303 299 295 291 283 261 233 222 223 211 207 208 215 224 224 218 224 220 223 252 219 212 215 227 237 241 237 247 256 266 268 275 284 278 279 287 282 227 214 197 217 243 250 268 272 277 280 280 282 283 284 288
316 306 304 299 298 286 262 234 221 223 225 213 209 213 229 227 220 221 214 219 220 229 220 215 221 226 242 240 239 254 272 278 265 279 289 288 287 284 222 146 138 189 227 257 275 282 281 283 286 287 287 284 289 294
315 312 306 301 297 270 238 219 223 226 226 218 218 216 222 222 212 217 210 205 211 222 226 222 221 225 227 238 250 261 257 262 284 301 308 283 227 133 198 216 236 270 283 287 288 290 292 292 293 297 295 294 295 300
317 312 302 292 282 252 235 223 219 228 222 220 220 223 229 227 225 220 213 209 204 212 221 219 218 223 227 237 247 264 258 271 274 278 9 97 180 233 284 269 288 287 295 297 298 298 298 297 300 305 304 303 305 303
318 310 291 280 253 240 232 224 214 222 218 209 227 224 228 222 218 216 217 211 214 216 214 217 222 227 232 245 249 245 232 242 274 269 265 274 263 263 272 291 291 293 300 304 305 306 304 304 307 311 312 308 306 307
320 317 309 270 254 230 234 226 215 218 222 223 222 228 220 211 214 218 221 219 222 225 227 227 233 225 229 229 238 219 227 244 280 269 268 282 278 282 283 282 297 300 307 310 310 310 310 308 310 315 315 314 311 312
298 309 290 260 259 231 237 222 219 232 224 225 233 222 213 213 215 217 224 221 225 230 232 234 231 220 228 226 228 247 255 265 285 291 290 281 280 272 279 292 297 304 312 314 313 313 313 313 316 318 317 317 316 317
302 289 266 255 250 226 241 220 217 211 211 211 217 216 214 219 220 220 219 219 225 231 234 231 227 222 227 227 229 243 254 260 268 280 296 295 259 260 290 296 296 301 314 317 319 321 320 321 324 323 322 322 322 322
290 279 269 253 217 230 236 211 214 213 212 217 226 235 228 213 220 221 223 222 221 223 221 220 218 224 232 236 239 241 244 240 260 272 269 267 258 280 289 297 293 313 320 324 326 327 328 330 333 334 335 335 336 341
279 273 246 238 221 223 219 206 205 201 209 216 218 213 207 201 209 217 219 212 212 219 226 229 232 237 241 241 237 237 235 240 244 254 256 240 256 278 291 293 308 324 324 323 327 328 332 345 352 353 353 358 25 87
266 249 220 211 208 202 199 196 188 197 202 205 200 200 193 198 205 197 191 190 189 202 219 235 240 237 239 239 233 232 244 232 231 227 229 220 242 302 273 279 322 326 331 337 343 358 4 17 17 19 28 44 64 95
254 245 221 221 222 221 210 211 214 199 201 196 196 194 193 196 193 185 186 192 214 225 239 242 238 231 234 228 215 223 233 199 207 198 200 198 234 207 325 336 342 345 349 354 13 34 48 47 47 51 54 72 79 81
248 242 226 213 213 209 212 215 203 196 194 193 195 187 188 189 190 198 204 228 247 256 250 242 250 233 229 221 202 199 194 177 168 169 170 172 162 132 44 23 14 18 22 45 69 85 80 70 70 66 69 76 83 79
226 217 209 211 206 211 215 220 213 200 192 193 194 202 206 208 214 222 230 261 267 250 237 240 261 233 217 193 184 180 168 161 158 164 171 169 159 134 85 55 43 50 62 77 82 88 91 87 78 75 75 77 81 82
235 230 217 217 216 218 221 211 206 212 222 226 214 220 224 229 240 240 245 260 257 228 219 194 242 220 196 181 172 166 163 163 162 166 161 149 166 167 137 87 78 66 73 87 94 94 94 90 82 80 76 78 80 81
247 230 229 231 232 226 223 225 232 238 236 233 228 230 238 243 244 242 242 256 239 217 208 195 179 146 148 160 168 172 171 162 149 162 157 142 142 134 135 124 99 82 100 102 100 98 93 90 83 81 80 81 81 79
262 240 229 227 230 232 235 226 229 228 226 223 227 228 234 240 241 236 241 239 198 188 182 180 185 159 174 185 172 157 167 174 170 154 149 146 146 146 155 142 125 107 108 107 107 102 96 83 75 72 81 74 72 65
225 202 200 203 200 198 198 196 199 210 215 222 226 230 230 229 232 228 215 190 185 177 175 176 173 162 157 160 163 156 150 154 156 151 151 148 148 153 158 160 156 146 139 136 126 107 103 86 61 46 55 61 47 33